Weather History for Don Muang, Thailand

Change the Weather History Date:

Friday, May 3, 2013

  Actual Average Record
Temperature  
Mean Temperature 93 °F -  
Max Temperature 100 °F 91 °F - ()
Min Temperature 86 °F 78 °F - ()
Cooling Degree Days 28    
Growing Degree Days 43 (Base 50)    
Moisture  
Dew Point 76 °F    
Average Humidity 61    
Maximum Humidity 79    
Minimum Humidity 37    
Precipitation  
Precipitation 0.00 in 0.21 in - ()
Sea Level Pressure  
Sea Level Pressure 29.68 in    
Wind  
Wind Speed 8 mph ()    
Max Wind Speed 15 mph    
Max Gust Speed -    
Visibility 6.2 miles    
Events      
T = Trace of Precipitation, MM = Missing Value Source: Averaged Metar Reports

Daily Weather History Graph

Daily Weather History Graph

Search for Another Location

Airport:

Trip Planner

Search our weather history database for the weather conditions in past years. The results will help you decide how hot, cold, wet, or windy it might be!

Date:

Astronomy

May. 03, 2013 Rise Set
Actual Time 5:55 AM ICT 6:34 PM ICT
Civil Twilight 5:32 AM ICT 6:56 PM ICT
Nautical Twilight 5:06 AM ICT 7:22 PM ICT
Astronomical Twilight 4:40 AM ICT 7:49 PM ICT
Moon 12:53 AM ICT (5/3) 12:57 PM ICT (5/3)
Length of Visible Light 13h 23m
Length of Day
12h 39m
Last Quarter, 42% of the Moon is Illuminated
May 3
Last Quarter
May 10
New
May 18
First Quarter
May 25
Full
Jun 1
Last Quarter

Hourly Weather History & Observations

Time (ICT) Temp. Heat Index Dew Point Humidity Pressure Visibility Wind Dir Wind Speed Gust Speed Precip Events Conditions
12:00 AM 87.8 °F 102.5 °F 78.8 °F 75% 29.68 in 6.2 mi SSW 10.4 mph - N/A   Scattered Clouds
12:30 AM 87.8 °F 102.5 °F 78.8 °F 75% 29.68 in 6.2 mi SSW 11.5 mph - N/A   Mostly Cloudy
1:00 AM 88 °F - 79 °F 68% 29.68 in 7 mi SSW 15.0 mph - -   Scattered Clouds
1:00 AM 87.8 °F 102.5 °F 78.8 °F 75% 29.65 in 6.2 mi SSW 15.0 mph - N/A   Mostly Cloudy
1:30 AM 87.8 °F 102.5 °F 78.8 °F 75% 29.65 in 6.2 mi SSW 11.5 mph - N/A   Mostly Cloudy
2:00 AM 87.8 °F 102.5 °F 78.8 °F 75% 29.65 in 6.2 mi SSW 12.7 mph - N/A   Mostly Cloudy
2:30 AM 87.8 °F 102.5 °F 78.8 °F 75% 29.65 in 6.2 mi SSW 10.4 mph - N/A   Mostly Cloudy
3:00 AM 87.8 °F 102.5 °F 78.8 °F 75% 29.65 in 6.2 mi SSW 9.2 mph - N/A   Mostly Cloudy
3:30 AM 87.8 °F 102.5 °F 78.8 °F 75% 29.65 in 6.2 mi SSW 6.9 mph - N/A   Mostly Cloudy
4:00 AM 87.8 °F 104.9 °F 80.6 °F 79% 29.65 in 6.2 mi SSW 5.8 mph - N/A   Mostly Cloudy
4:30 AM 87.8 °F 104.9 °F 80.6 °F 79% 29.68 in 6.2 mi SSW 5.8 mph - N/A   Scattered Clouds
5:00 AM 87.8 °F 104.9 °F 80.6 °F 79% 29.68 in 6.2 mi SW 5.8 mph - N/A   Scattered Clouds
5:30 AM 87.8 °F 104.9 °F 80.6 °F 79% 29.68 in 6.2 mi SW 5.8 mph - N/A   Scattered Clouds
6:00 AM 87.8 °F 104.9 °F 80.6 °F 79% 29.68 in 6.2 mi SSW 5.8 mph - N/A   Mostly Cloudy
6:30 AM 87.8 °F 102.5 °F 78.8 °F 75% 29.71 in 6.2 mi SSW 4.6 mph - N/A   Mostly Cloudy
7:00 AM 88 °F - 80 °F 71% 29.72 in 6 mi SSW 5.8 mph - -   Scattered Clouds
7:00 AM 87.8 °F 102.5 °F 78.8 °F 75% 29.71 in 6.2 mi SSW 5.8 mph - N/A   Scattered Clouds
7:30 AM 87.8 °F 99.7 °F 77.0 °F 70% 29.74 in 6.2 mi WSW 6.9 mph - N/A   Scattered Clouds
8:00 AM 87.8 °F 97.6 °F 75.2 °F 66% 29.74 in 6.2 mi WSW 5.8 mph - N/A   Scattered Clouds
8:30 AM 89.6 °F 98.2 °F 73.4 °F 59% 29.74 in 6.2 mi WNW 6.9 mph - N/A   Scattered Clouds
9:00 AM 91.4 °F 100.1 °F 73.4 °F 55% 29.74 in 6.2 mi WNW 6.9 mph - N/A   Scattered Clouds
9:30 AM 91.4 °F 100.1 °F 73.4 °F 55% 29.74 in 6.2 mi NNW 4.6 mph - N/A   Scattered Clouds
10:00 AM 93.2 °F 102.4 °F 73.4 °F 52% 29.74 in 6.2 mi WNW 5.8 mph - N/A   Scattered Clouds
10:30 AM 95.0 °F 104.5 °F 73.4 °F 49% 29.74 in 6.2 mi West 3.5 mph - N/A   Scattered Clouds
11:00 AM 96.8 °F 107.3 °F 73.4 °F 47% 29.74 in 6.2 mi SSE 3.5 mph - N/A   Scattered Clouds
11:30 AM 96.8 °F 107.3 °F 73.4 °F 47% 29.71 in 6.2 mi Calm Calm - N/A   Scattered Clouds
12:00 PM 96.8 °F 107.3 °F 73.4 °F 47% 29.71 in 6.2 mi NNW 3.5 mph - N/A   Scattered Clouds
12:30 PM 98.6 °F 109.2 °F 73.4 °F 44% 29.71 in 6.2 mi North 5.8 mph - N/A   Scattered Clouds
1:00 PM 98 °F - 74 °F 37% 29.69 in 6 mi ENE 4.6 mph - -   Scattered Clouds
1:00 PM 98.6 °F 109.2 °F 73.4 °F 44% 29.68 in 6.2 mi ENE 4.6 mph - N/A   Mostly Cloudy
1:30 PM 100.4 °F 113.6 °F 75.2 °F 44% 29.68 in 6.2 mi North 3.5 mph - N/A   Mostly Cloudy
2:00 PM 100.4 °F 113.6 °F 75.2 °F 44% 29.65 in 6.2 mi WSW 10.4 mph - N/A   Mostly Cloudy
2:30 PM 100.4 °F 113.6 °F 75.2 °F 44% 29.62 in 6.2 mi SSE 13.8 mph - N/A   Mostly Cloudy
3:00 PM 98.6 °F 109.2 °F 73.4 °F 44% 29.62 in 6.2 mi SSE 11.5 mph - N/A   Mostly Cloudy
3:30 PM 98.6 °F 109.2 °F 73.4 °F 44% 29.62 in 6.2 mi South 10.4 mph - N/A   Mostly Cloudy
4:00 PM 96.8 °F 107.3 °F 73.4 °F 47% 29.62 in 6.2 mi SSW 13.8 mph - N/A   Mostly Cloudy
4:30 PM 96.8 °F 109.6 °F 75.2 °F 50% 29.62 in 6.2 mi South 10.4 mph - N/A   Mostly Cloudy
5:00 PM 95.0 °F 107.4 °F 75.2 °F 53% 29.59 in 6.2 mi South 11.5 mph - N/A   Mostly Cloudy
5:30 PM 95.0 °F 107.4 °F 75.2 °F 53% 29.59 in 6.2 mi South 8.1 mph - N/A   Scattered Clouds
6:00 PM 95.0 °F 107.4 °F 75.2 °F 53% 29.62 in 6.2 mi SSW 6.9 mph - N/A   Scattered Clouds
6:30 PM 95.0 °F 107.4 °F 75.2 °F 53% 29.62 in 6.2 mi South 9.2 mph - N/A   Scattered Clouds
7:00 PM 94 °F - 75 °F 46% 29.64 in 6 mi SSW 9.2 mph - -   Scattered Clouds
7:00 PM 93.2 °F 105.0 °F 75.2 °F 56% 29.62 in 6.2 mi SSW 9.2 mph - N/A   Scattered Clouds
7:30 PM 91.4 °F 100.1 °F 73.4 °F 55% 29.65 in 6.2 mi South 9.2 mph - N/A   Scattered Clouds
8:00 PM 91.4 °F 100.1 °F 73.4 °F 55% 29.65 in 6.2 mi South 8.1 mph - N/A   Scattered Clouds
8:30 PM 91.4 °F 102.5 °F 75.2 °F 59% 29.65 in 6.2 mi South 6.9 mph - N/A   Mostly Cloudy
9:00 PM 91.4 °F 102.5 °F 75.2 °F 59% 29.68 in 6.2 mi SSW 11.5 mph - N/A   Mostly Cloudy
9:30 PM 89.6 °F 102.2 °F 77.0 °F 66% 29.68 in 6.2 mi SSW 13.8 mph - N/A   Mostly Cloudy
10:00 PM 89.6 °F 102.2 °F 77.0 °F 66% 29.71 in 6.2 mi South 15.0 mph - N/A   Mostly Cloudy
10:30 PM 89.6 °F 104.7 °F 78.8 °F 70% 29.71 in 6.2 mi South 11.5 mph - N/A   Mostly Cloudy
11:00 PM 87.8 °F 102.5 °F 78.8 °F 75% 29.74 in 6.2 mi SSW 10.4 mph - N/A   Mostly Cloudy
11:30 PM 87.8 °F 102.5 °F 78.8 °F 75% 29.74 in 6.2 mi South 11.5 mph - N/A   Mostly Cloudy